TimeMDT,TemperatureF,Dew PointF,Humidity,Sea Level PressureIn,VisibilityMPH,Wind Direction,Wind SpeedMPH,Gust SpeedMPH,PrecipitationIn,Events,Conditions,WindDirDegrees,DateUTC
12:15 AM,57.2,44.6,63,30.44,10.0,NE,4.6,-,N/A,,Clear,40,2013-06-30 06:15:00
12:35 AM,57.2,42.8,59,30.43,10.0,Calm,Calm,-,N/A,,Clear,0,2013-06-30 06:35:00
12:55 AM,53.6,42.8,67,30.43,10.0,Calm,Calm,-,N/A,,Clear,0,2013-06-30 06:55:00
1:15 AM,55.4,44.6,67,30.43,10.0,Calm,Calm,-,N/A,,Clear,0,2013-06-30 07:15:00
1:35 AM,53.6,42.8,67,30.43,10.0,SSE,3.5,-,N/A,,Clear,160,2013-06-30 07:35:00
1:55 AM,51.8,42.8,71,30.44,10.0,Calm,Calm,-,N/A,,Clear,0,2013-06-30 07:55:00
2:15 AM,51.8,42.8,71,30.43,10.0,NNW,3.5,-,N/A,,Clear,330,2013-06-30 08:15:00
2:35 AM,51.8,42.8,71,30.42,10.0,Calm,Calm,-,N/A,,Mostly Cloudy,0,2013-06-30 08:35:00
2:55 AM,51.8,42.8,71,30.42,10.0,Calm,Calm,-,N/A,,Mostly Cloudy,0,2013-06-30 08:55:00
3:15 AM,51.8,42.8,71,30.42,10.0,Calm,Calm,-,N/A,,Partly Cloudy,0,2013-06-30 09:15:00
3:35 AM,50.0,39.2,66,30.43,10.0,Calm,Calm,-,N/A,,Clear,0,2013-06-30 09:35:00
3:55 AM,50.0,42.8,76,30.42,10.0,Calm,Calm,-,N/A,,Clear,0,2013-06-30 09:55:00
4:15 AM,50.0,42.8,76,30.42,10.0,Calm,Calm,-,N/A,,Clear,0,2013-06-30 10:15:00
4:35 AM,48.2,41.0,76,30.42,10.0,Calm,Calm,-,N/A,,Clear,0,2013-06-30 10:35:00
4:55 AM,48.2,42.8,82,30.43,10.0,Calm,Calm,-,N/A,,Clear,0,2013-06-30 10:55:00
5:15 AM,46.4,39.2,76,30.43,10.0,Calm,Calm,-,N/A,,Clear,0,2013-06-30 11:15:00
5:35 AM,48.2,39.2,71,30.44,10.0,Calm,Calm,-,N/A,,Clear,0,2013-06-30 11:35:00
5:55 AM,48.2,41.0,76,30.45,10.0,Calm,Calm,-,N/A,,Clear,0,2013-06-30 11:55:00
6:15 AM,44.6,39.2,81,30.44,10.0,Calm,Calm,-,N/A,,Clear,0,2013-06-30 12:15:00
6:55 AM,48.2,41.0,76,30.45,10.0,Calm,Calm,-,N/A,,Clear,0,2013-06-30 12:55:00
7:15 AM,50.0,41.0,71,30.45,10.0,ENE,3.5,-,N/A,,Clear,70,2013-06-30 13:15:00
7:35 AM,51.8,41.0,67,30.45,10.0,Calm,Calm,-,N/A,,Clear,0,2013-06-30 13:35:00
7:55 AM,53.6,41.0,62,30.45,10.0,Calm,Calm,-,N/A,,Clear,0,2013-06-30 13:55:00
8:15 AM,55.4,42.8,63,30.45,10.0,Calm,Calm,-,N/A,,Clear,0,2013-06-30 14:15:00
8:35 AM,55.4,42.8,63,30.45,10.0,Calm,Calm,-,N/A,,Clear,0,2013-06-30 14:35:00
8:55 AM,57.2,42.8,59,30.45,10.0,Calm,Calm,-,N/A,,Clear,0,2013-06-30 14:55:00
9:15 AM,59.0,42.8,55,30.44,10.0,Calm,Calm,-,N/A,,Clear,0,2013-06-30 15:15:00
9:35 AM,62.6,42.8,48,30.43,10.0,Calm,Calm,-,N/A,,Clear,0,2013-06-30 15:35:00
9:55 AM,62.6,42.8,48,30.43,10.0,Calm,Calm,-,N/A,,Clear,0,2013-06-30 15:55:00
10:15 AM,64.4,42.8,45,30.42,10.0,Calm,Calm,-,N/A,,Clear,0,2013-06-30 16:15:00
10:35 AM,66.2,42.8,43,30.41,10.0,SW,3.5,-,N/A,,Clear,220,2013-06-30 16:35:00
10:55 AM,66.2,42.8,43,30.40,10.0,WSW,3.5,-,N/A,,Clear,240,2013-06-30 16:55:00
11:15 AM,69.8,44.6,40,30.39,10.0,Calm,Calm,-,N/A,,Clear,0,2013-06-30 17:15:00
11:35 AM,71.6,44.6,38,30.38,10.0,West,5.8,-,N/A,,Clear,260,2013-06-30 17:35:00
11:55 AM,73.4,44.6,36,30.36,10.0,WSW,5.8,-,N/A,,Clear,240,2013-06-30 17:55:00
12:15 PM,77.0,44.6,32,30.35,10.0,SW,10.4,-,N/A,,Clear,230,2013-06-30 18:15:00
12:35 PM,78.8,44.6,30,30.34,10.0,WSW,8.1,-,N/A,,Scattered Clouds,250,2013-06-30 18:35:00
12:55 PM,78.8,42.8,28,30.33,10.0,SSW,6.9,-,N/A,,Partly Cloudy,210,2013-06-30 18:55:00
1:15 PM,78.8,41.0,26,30.33,10.0,WNW,4.6,-,N/A,,Mostly Cloudy,290,2013-06-30 19:15:00
1:35 PM,80.6,39.2,23,30.31,10.0,North,13.8,21.9,N/A,,Partly Cloudy,350,2013-06-30 19:35:00
1:55 PM,82.4,37.4,20,30.30,10.0,NNW,13.8,21.9,N/A,,Partly Cloudy,330,2013-06-30 19:55:00
2:15 PM,82.4,37.4,20,30.29,10.0,NNW,17.3,25.3,N/A,,Partly Cloudy,330,2013-06-30 20:15:00
2:35 PM,82.4,35.6,19,30.28,10.0,North,17.3,25.3,N/A,,Clear,360,2013-06-30 20:35:00
2:55 PM,82.4,37.4,20,30.28,10.0,NNW,12.7,26.5,N/A,,Clear,330,2013-06-30 20:55:00
3:15 PM,82.4,35.6,19,30.28,10.0,North,24.2,28.8,N/A,,Clear,360,2013-06-30 21:15:00
3:35 PM,78.8,37.4,23,30.29,10.0,North,18.4,27.6,N/A,,Clear,360,2013-06-30 21:35:00
3:55 PM,78.8,37.4,23,30.29,10.0,North,13.8,23.0,N/A,,Clear,350,2013-06-30 21:55:00
4:15 PM,80.6,37.4,21,30.27,10.0,North,15.0,20.7,N/A,,Clear,360,2013-06-30 22:15:00
4:35 PM,82.4,37.4,20,30.27,10.0,North,15.0,21.9,N/A,,Clear,10,2013-06-30 22:35:00
4:55 PM,82.4,35.6,19,30.27,10.0,NNW,16.1,21.9,N/A,Thunderstorm,Thunderstorm,330,2013-06-30 22:55:00
5:15 PM,78.8,39.2,24,30.29,10.0,NE,19.6,26.5,N/A,,Scattered Clouds,40,2013-06-30 23:15:00
5:35 PM,77.0,35.6,22,30.29,10.0,NNE,21.9,33.4,N/A,,Scattered Clouds,30,2013-06-30 23:35:00
5:55 PM,78.8,37.4,23,30.29,10.0,NE,15.0,19.6,N/A,,Clear,40,2013-06-30 23:55:00
6:15 PM,73.4,39.2,29,30.31,10.0,ESE,24.2,32.2,N/A,,Clear,110,2013-07-01 00:15:00
6:35 PM,68.0,44.6,43,30.31,10.0,ESE,19.6,31.1,N/A,,Clear,110,2013-07-01 00:35:00
6:55 PM,69.8,42.8,38,30.33,10.0,ESE,18.4,26.5,N/A,,Partly Cloudy,120,2013-07-01 00:55:00
7:15 PM,69.8,42.8,38,30.34,10.0,ESE,21.9,31.1,N/A,,Partly Cloudy,110,2013-07-01 01:15:00
7:35 PM,69.8,41.0,35,30.34,10.0,ESE,20.7,26.5,N/A,,Mostly Cloudy,110,2013-07-01 01:35:00
7:55 PM,68.0,41.0,37,30.34,10.0,ESE,17.3,24.2,N/A,,Partly Cloudy,110,2013-07-01 01:55:00
8:15 PM,68.0,39.2,35,30.35,10.0,Calm,Calm,-,N/A,,Clear,0,2013-07-01 02:15:00
8:35 PM,66.2,41.0,40,30.36,10.0,NNW,3.5,-,N/A,,Clear,340,2013-07-01 02:35:00
8:55 PM,66.2,42.8,43,30.37,10.0,North,5.8,-,N/A,,Clear,10,2013-07-01 02:55:00
9:15 PM,66.2,42.8,43,30.38,10.0,Calm,Calm,-,N/A,,Clear,0,2013-07-01 03:15:00
9:35 PM,62.6,44.6,52,30.38,10.0,North,5.8,-,N/A,,Clear,360,2013-07-01 03:35:00
9:55 PM,60.8,44.6,55,30.40,10.0,Calm,Calm,-,N/A,,Partly Cloudy,0,2013-07-01 03:55:00
10:15 PM,60.8,44.6,55,30.41,10.0,ENE,4.6,-,N/A,,Mostly Cloudy,60,2013-07-01 04:15:00
10:35 PM,62.6,42.8,48,30.42,10.0,NE,6.9,-,N/A,,Mostly Cloudy,50,2013-07-01 04:35:00
10:55 PM,60.8,44.6,55,30.43,10.0,Calm,Calm,-,N/A,,Scattered Clouds,0,2013-07-01 04:55:00
11:15 PM,60.8,42.8,52,30.43,10.0,North,6.9,-,N/A,,Partly Cloudy,360,2013-07-01 05:15:00
11:35 PM,60.8,42.8,52,30.43,10.0,NNW,8.1,-,N/A,,Clear,340,2013-07-01 05:35:00
11:55 PM,60.8,41.0,48,30.44,10.0,NE,11.5,-,N/A,,Clear,40,2013-07-01 05:55:00